Simultaneous Nadir Overpasses (SNOs) Predictions

Prediction of SNOs between FY3D and NOAA-19 Satellite Orbit:

Table of predicted SNOs for the next 14.0 days since TLE Epoch: 7/22/2022
Index Date (FY3D) Time (FY3D) Lat,Lon (FY3D) SZA (FY3D ) Date (NOAA-19) Time (NOAA-19) Lat,Lon (NOAA-19) SZA (NOAA-19 ) Distance(km) Time Diff (sec)
1 08/01/2022 10:53:06 -77.25,-178.46 120.18 08/01/2022 10:51:53 -77.24,-179.46 120.09 24.52 73
2 08/01/2022 11:43:55 77.35, -11.60 59.95 08/01/2022 11:42:46 77.36, -11.64 59.99 1.58 69
3 08/01/2022 12:34:40 -77.36, 155.65 120.02 08/01/2022 12:33:50 -77.36, 155.59 120.01 1.47 50
4 08/01/2022 13:25:27 77.38, -37.11 60.01 08/01/2022 13:24:46 77.35, -37.18 60.00 3.36 41
5 08/01/2022 14:16:12 -77.39, 130.14 119.97 08/01/2022 14:15:49 -77.39, 130.26 119.97 2.87 23
6 08/01/2022 15:06:58 77.36, -62.43 60.01 08/01/2022 15:06:45 77.38, -62.51 60.04 3.02 13
7 08/01/2022 15:57:43 -77.38, 104.82 119.97 08/01/2022 15:57:49 -77.38, 104.73 119.96 2.42 6
8 08/01/2022 16:48:30 77.39, -87.94 60.06 08/01/2022 16:48:45 77.37, -88.05 60.05 3.22 15
9 08/01/2022 17:39:15 -77.40, 79.31 119.92 08/01/2022 17:39:48 -77.42, 79.39 119.92 2.38 33
10 08/01/2022 18:30:02 77.42,-113.45 60.12 08/01/2022 18:30:44 77.41,-113.38 60.09 2.19 42
11 08/01/2022 19:20:47 -77.43, 53.80 119.86 08/01/2022 19:21:48 -77.41, 53.86 119.91 3.07 61
12 08/01/2022 20:11:33 77.41,-138.77 60.12 08/01/2022 20:12:44 77.40,-138.92 60.10 3.67 71



Historial Predications of SNOs between FY3D and NOAA-19
